Retour au catalogue

COSMOS 507

ActifMilitaireLEO
NORAD 6120·PAYLOAD·🇷🇺 Russia

Lancé Jul 20, 1972 depuis Plesetsk Cosmodrome

Loading…

Prochains Passages (prochaines 24 heures)

TLE

FraisSource: Space-Track

Époque: Sep 14, 2026, 06:42 UTC

1 06120U 72057D   26257.27978225 -.00000022  00000-0 -37459-4 0  9992
2 06120  74.0244  88.7698 0053596 112.3181 358.5336 12.52658051476110

Suivez COSMOS 507 en temps réel avec AllMySat

Download on the App Store